Weather History for Chattanooga, TN

Change the Weather History Date:

Wednesday, March 27, 2013

  Actual Average Record
Temperature  
Mean Temperature 41 °F 55 °F  
Max Temperature 54 °F 67 °F 86 °F (1910)
Min Temperature 28 °F 43 °F 17 °F (1955)
Degree Days  
Heating Degree Days 24 10  
Month to date heating degree days 500 365  
Since 1 July heating degree days 2816 2987  
Cooling Degree Days 0 0  
Month to date cooling degree days 3 0  
Year to date cooling degree days 5 0  
Moisture  
Dew Point 25 °F    
Average Humidity 57    
Maximum Humidity 85    
Minimum Humidity 29    
Precipitation  
Precipitation 0.00 in 0.16 in 6.19 in (1994)
Month to date precipitation 3.68 4.34  
Year to date precipitation 17.36 14.09  
Snow  
Snow 0.00 in 0.10 in - ()
Month to date snowfall T 1.2  
Since 1 July snowfall 0.3 3.8  
Snow Depth 0.00 in    
Sea Level Pressure  
Sea Level Pressure 30.33 in    
Wind  
Wind Speed 4 mph (NW)    
Max Wind Speed 14 mph    
Max Gust Speed 21 mph    
Visibility 10 miles    
Events      
T = Trace of Precipitation, MM = Missing Value Source: NWS Daily Summary

Daily Weather History Graph

Daily Weather History Graph

Search for Another Location

Airport:

Trip Planner

Search our weather history database for the weather conditions in past years. The results will help you decide how hot, cold, wet, or windy it might be!

Date:

Astronomy

Mar. 27, 2013 Rise Set
Actual Time 7:34 AM EDT 7:58 PM EDT
Civil Twilight 7:08 AM EDT 8:23 PM EDT
Nautical Twilight 6:39 AM EDT 8:53 PM EDT
Astronomical Twilight 6:08 AM EDT 9:23 PM EDT
Moon 8:37 PM EDT (3/27) 7:26 AM EDT (3/27)
Length of Visible Light 13h 14m
Length of Day
12h 24m
Full, 100% of the Moon is Illuminated
Mar 27
Full
Apr 3
Last Quarter
Apr 10
New
Apr 18
First Quarter
Apr 25
Full

Hourly Weather History & Observations

Time (EDT) Temp. Windchill Dew Point Humidity Pressure Visibility Wind Dir Wind Speed Gust Speed Precip Events Conditions
12:53 AM 35.1 °F 29.3 °F 26.1 °F 70% 30.35 in 10.0 mi WNW 6.9 mph - N/A   Overcast
1:53 AM 34.0 °F 29.8 °F 26.1 °F 73% 30.33 in 10.0 mi WNW 4.6 mph - N/A   Overcast
2:53 AM 33.1 °F - 26.1 °F 75% 30.33 in 10.0 mi Calm Calm - N/A   Scattered Clouds
3:53 AM 34.0 °F - 26.1 °F 73% 30.32 in 10.0 mi Calm Calm - N/A   Overcast
4:53 AM 32.0 °F - 26.1 °F 79% 30.32 in 10.0 mi Calm Calm - N/A   Partly Cloudy
5:53 AM 30.0 °F - 25.0 °F 82% 30.33 in 10.0 mi Calm Calm - N/A   Scattered Clouds
6:53 AM 28.9 °F - 25.0 °F 85% 30.35 in 10.0 mi Calm Calm - N/A   Clear
7:53 AM 30.0 °F - 26.1 °F 85% 30.37 in 10.0 mi Calm Calm - N/A   Clear
8:53 AM 35.1 °F - 27.0 °F 72% 30.38 in 10.0 mi Calm Calm - N/A   Partly Cloudy
9:53 AM 39.0 °F 34.0 °F 25.0 °F 57% 30.39 in 10.0 mi NNW 6.9 mph - N/A   Partly Cloudy
10:53 AM 42.1 °F 36.6 °F 26.1 °F 53% 30.39 in 10.0 mi NNW 9.2 mph - N/A   Scattered Clouds
11:53 AM 45.0 °F 40.1 °F 24.1 °F 44% 30.39 in 10.0 mi NW 9.2 mph - N/A   Scattered Clouds
12:53 PM 46.9 °F - 25.0 °F 42% 30.37 in 10.0 mi NNE 6.9 mph - N/A   Scattered Clouds
1:53 PM 50.0 °F - 24.1 °F 36% 30.35 in 10.0 mi WNW 9.2 mph - N/A   Scattered Clouds
2:53 PM 52.0 °F - 25.0 °F 35% 30.32 in 10.0 mi WNW 9.2 mph - N/A   Partly Cloudy
3:53 PM 52.0 °F - 23.0 °F 32% 30.30 in 10.0 mi WSW 9.2 mph - N/A   Partly Cloudy
4:53 PM 53.1 °F - 23.0 °F 31% 30.29 in 10.0 mi WNW 10.4 mph - N/A   Partly Cloudy
5:53 PM 53.1 °F - 24.1 °F 32% 30.28 in 10.0 mi West 5.8 mph - N/A   Scattered Clouds
6:53 PM 52.0 °F - 23.0 °F 32% 30.28 in 10.0 mi NW 10.4 mph - N/A   Partly Cloudy
7:53 PM 48.0 °F - 23.0 °F 37% 30.30 in 10.0 mi NW 9.2 mph - N/A   Partly Cloudy
8:53 PM 46.0 °F 43.9 °F 25.0 °F 44% 30.31 in 10.0 mi NW 4.6 mph - N/A   Partly Cloudy
9:53 PM 45.0 °F - 25.0 °F 46% 30.31 in 10.0 mi Calm Calm - N/A   Partly Cloudy
10:53 PM 42.1 °F - 28.9 °F 60% 30.32 in 10.0 mi Calm Calm - N/A   Partly Cloudy
11:53 PM 37.0 °F - 30.0 °F 76% 30.31 in 10.0 mi Calm Calm - N/A   Partly Cloudy